Location: Il Ritiro
(43.4167°N, 13.1333°E)
Time: 07:42:20
(UTC+00:00)

Cosmos 1844 Rocket - Pass Details

Date: 05 July 2020
Orbit: 826 x 843 km, 71.0° (Epoch: 05 August)

Event Time Altitude Azimuth Distance (km) Brightness Sun altitude
Rises 21:07:22 0° 326° (NW) 3,373 7.6 -18.0°
Reaches altitude 10° 21:10:01 10° 317° (NW) 2,435 6.3 -18.2°
Maximum altitude 21:14:54 32° 256° (WSW) 1,385 3.9 -18.6°
Enters shadow 21:18:14 18° 204° (SSW) 1,943 4.2 -18.9°
